Flag for U.S.A. Weather past 2 weeks in Washington DC, District of Columbia, U.S.A.

Now
84 °F

Broken clouds.


Feels Like: 92 °F
Forecast: 74 / 90 °F
Wind: 10 mph from South

Location: Reagan National Airport

Current Time: Jul 30, 2015 at 10:31:53 AM

Latest Report: Jul 30, 2015 at 9:52 AM


Visibility: 10 mi

Pressure: 29.91 "Hg

Humidity: 74%

Dew point: 75 °F

Location of Washington DCLocation

Historic Weather in Washington DC — Graph

°F

Washington DC temperature yesterday

Maximum temperature yesterday: 92 °F (at 3:52 PM)
Minimum temperature yesterday: 78 °F (at 4:52 AM)
Average temperature yesterday: 84 °F

Past Weeks' High & Low Weather Summary

 TemperatureHumidityPressure
High96 °F (Jul 19, 3:52 PM)88% (Jul 19, 3:52 AM)30.10 "Hg (Jul 19, 3:52 AM)
Low66 °F (Jul 16, 6:52 AM)28% (Jul 24, 12:52 PM)29.63 "Hg (Jul 21, 5:52 PM)
Average82 °F62%29.93 "Hg
* Reported Jul 15 8:52 AM — Jul 30 8:52 AM, Washington DC, Weather by CustomWeather, © 2015

Note: Actual official high and low records may vary slightly from our data, if they occured in-between our weather recording intervals... More about our weather records

Advertising

Washington DC weather history for previous 24 hours

 ConditionsComfort  
Time TempWeatherWind HumidityBarometerVisibility
8:52 AM
Thu, Jul 30
82 °FPartly sunny.9 mph77%29.93 "Hg10 mi
7:52 AM81 °FPartly sunny.8 mph77%29.92 "Hg10 mi
6:52 AM80 °FPassing clouds.10 mph79%29.93 "Hg10 mi
5:52 AM80 °FPartly cloudy.14 mph79%29.92 "Hg10 mi
4:52 AM80 °FPartly cloudy.13 mph81%29.91 "Hg10 mi
3:52 AM81 °FPassing clouds.8 mph82%29.92 "Hg10 mi
2:52 AM82 °FPassing clouds.9 mph79%29.93 "Hg10 mi
1:52 AM82 °FPassing clouds.7 mph77%29.95 "Hg10 mi
12:52 AM83 °FPassing clouds.10 mph74%29.96 "Hg10 mi
11:52 PM
Wed, Jul 29
82 °FPartly cloudy.7 mph77%29.95 "Hg10 mi
10:52 PM83 °FPassing clouds.10 mph74%29.96 "Hg10 mi
9:52 PM84 °FMostly cloudy.9 mph67%29.97 "Hg10 mi
8:52 PM86 °FScattered clouds.10 mph61%29.95 "Hg10 mi
7:52 PM87 °FBroken clouds.13 mph59%29.94 "Hg10 mi
6:52 PM89 °FBroken clouds.14 mph57%29.93 "Hg10 mi
5:52 PM89 °FBroken clouds.16 mph63%29.93 "Hg10 mi
4:52 PM90 °FBroken clouds.15 mph57%29.95 "Hg10 mi
3:52 PM92 °FPartly sunny.13 mph58%29.96 "Hg10 mi
2:52 PM90 °FBroken clouds.10 mph59%29.97 "Hg10 mi
1:52 PM90 °FBroken clouds.14 mph61%29.98 "Hg10 mi
12:52 PM88 °FBroken clouds.13 mph67%30.00 "Hg10 mi
11:52 AM87 °FPartly sunny.9 mph67%30.01 "Hg10 mi
10:52 AM86 °FBroken clouds.8 mph72%30.01 "Hg10 mi
Weather by CustomWeather, © 2015

See weather overviewHow to use our weather pages